Location: Ferchesar
(52.6477°N, 12.4298°E)
Time: 19:53:06
(UTC+02:00)

A-11 Canister half - Pass Details

Date: 11 March 2021
Orbit: 1525 x 1683 km, 47.3° (Epoch: 11 April)

Event Time Altitude Azimuth Distance (km) Brightness Sun altitude
Exits shadow 03:11:40 45° 186° (S) 2,070 9.3 -29.7°
Maximum altitude 03:13:29 50° 156° (SSE) 1,956 9.3 -29.5°
Drops below altitude 10° 03:22:27 10° 85° (E) 3,743 11.7 -28.4°
Sets 03:25:35 0° 80° (E) 4,712 12.5 -28.0°
